Terminal Aerodrome Forecast
Issued by NWS

Home | Current Version | Previous Version | Graphics & Text | Print | Product List | Glossary On
Versions: 1 2 3 4 5 6 7 8 9 10 11 12 13 14 15 16 17 18 19 20 21 22 23
000
FTUS43 KBIS 290900 AAA
TAFMOT
TAF AMD
KMOT 290902Z 2909/3006 06008KT P6SM SCT006 BKN015 OVC025
      TEMPO 2909/2913 5SM BR BKN006 OVC015
     FM291800 10012KT P6SM SCT007 BKN020
     FM300200 14010KT P6SM SCT007 OVC012=

USA.gov is the U.S. government's official web portal to all federal, state and local government web resources and services.